Starlink 32320

operational
NORAD ID: 61638 Int'l Des: 2024-191 Owner: SPXS Country: US Constellation: starlink
LEOCIRCULAR

关于 Starlink 32320

正在加载描述...

实时位置

正在加载3D地球...

即将过境

高度历史

Altitude vs Time

uPlot chart will show altitude changes over time

两行轨道根数

1 61638U 24191T 25304.89278500 -.00000126 00000-0 49583-5 0 9998
2 61638 42.9997 165.7664 0001314 258.5887 101.4817 15.27575507 57797
Epoch: Oct 31, 2025 • Age: 29 hours

当前状态

高度 485.9 km
速度 7.62 km/s
星下点 -16.19°S, 83.12°W
发射日期 Oct 23, 2024
运行时间 1 years
类型 internet

技术详情

分类 Payload
质量 730.00 kg
干质量 700.00 kg
总质量 730.00 kg
长度 0.30 m
直径 4.10 m
跨度 29.00 m
形状 Box + pan
制造商 SPXS
平台类型 Starlink V2M
阶段状态 In Orbit
所有者/国家 SPXS/US

大型星座

Loading constellations...